Date String (YYYY-MM-DD hh:mm:ss) UTC,Instrument flags,Ambient pressure (hPa),Sample flow (lpm),Bypass flow (lpm),Sample temperature (°C),Ambient temperature (°C),ASC tube jacket temperature (°C),LED temperature (°C),Box temperature (°C),Sample RH (%),Span deviation,Mass concentration (μg/m³),Mass concentration (μg/m³),Mass concentration (μg/m³)
DateTimeUTC,F1_M11,P_M11,Q1_M11,Q2_M11,T1_M11,T2_M11,T3_M11,T4_M11,T5_M11,U1_M11,ZSPAN_M11,X0_M11,X2_M11,X1_M11
2021-11-14 19:00:00,,0826.1,5.00,0.00,26.0,25.2,00.0,34.9,27.8,14.5,0000.0,0003.49,0000.96,0000.47
2021-11-14 19:01:00,,0826.2,5.00,0.00,26.0,25.2,00.0,35.0,27.8,14.5,0000.0,0003.35,0000.93,0000.47
2021-11-14 19:02:00,,0826.1,5.00,0.00,26.0,25.1,00.0,35.0,27.8,14.5,0000.0,0002.06,0000.87,0000.47
2021-11-14 19:03:00,,0826.1,5.00,0.00,26.1,25.2,00.0,35.0,27.8,14.5,0000.0,0001.91,0000.84,0000.46
2021-11-14 19:04:00,,0826.1,5.01,0.00,26.1,25.2,00.0,35.0,27.9,14.4,0000.0,0001.76,0000.80,0000.46
2021-11-14 19:05:00,,0826.1,4.98,0.00,26.1,25.1,00.0,35.0,27.9,14.4,0000.0,0001.65,0000.76,0000.45
2021-11-14 19:06:00,,0826.2,5.00,0.00,26.1,25.2,00.0,35.0,27.9,14.4,0000.0,0001.60,0000.75,0000.46
2021-11-14 19:07:00,,0826.0,5.01,0.00,26.1,25.2,00.0,35.0,27.9,14.4,0000.0,0001.51,0000.74,0000.46
2021-11-14 19:08:00,,0826.1,4.99,0.00,26.1,25.2,00.0,35.0,27.9,14.4,0000.0,0002.46,0000.76,0000.47
2021-11-14 19:09:00,,0826.1,4.99,0.00,26.1,25.2,00.0,35.1,27.9,14.4,0000.0,0003.23,0000.74,0000.46
2021-11-14 19:10:00,,0826.1,5.00,0.00,26.1,25.2,00.0,35.1,27.9,14.4,0000.0,0003.89,0000.75,0000.47
2021-11-14 19:11:00,,0826.0,5.01,0.00,26.2,25.2,00.0,35.1,27.9,14.4,0000.0,0004.27,0000.72,0000.47
2021-11-14 19:12:00,,0826.0,5.01,0.00,26.2,25.3,00.0,35.1,27.9,14.4,0000.0,0004.07,0000.69,0000.47
2021-11-14 19:13:00,,0826.0,4.99,0.00,26.2,25.3,00.0,35.1,28.0,14.4,0000.0,0004.07,0000.69,0000.48
2021-11-14 19:14:00,,0826.0,5.00,0.00,26.2,25.4,00.0,35.1,28.0,14.4,0000.0,0004.06,0000.71,0000.49
2021-11-14 19:15:00,,0826.1,5.01,0.00,26.2,25.4,00.0,35.1,28.0,14.4,0000.0,0004.02,0000.70,0000.50
2021-11-14 19:16:00,,0826.1,5.01,0.00,26.2,25.4,00.0,35.1,28.0,14.5,0000.0,0004.07,0000.71,0000.49
2021-11-14 19:17:00,,0826.1,5.01,0.00,26.2,25.4,00.0,35.1,28.0,14.5,0000.0,0004.18,0000.76,0000.50
2021-11-14 19:18:00,,0826.2,4.99,0.00,26.2,25.3,00.0,35.1,28.0,14.4,0000.0,0004.23,0000.79,0000.51
2021-11-14 19:19:00,,0826.2,4.98,0.00,26.2,25.3,00.0,35.2,28.0,14.5,0000.0,0003.61,0000.79,0000.51
2021-11-14 19:20:00,,0826.0,5.00,0.00,26.2,25.3,00.0,35.2,28.0,14.4,0000.0,0002.72,0000.85,0000.52
2021-11-14 19:21:00,,0826.1,5.00,0.00,26.3,25.3,00.0,35.2,28.0,14.4,0000.0,0002.33,0000.87,0000.52
2021-11-14 19:22:00,,0826.0,5.01,0.00,26.3,25.3,00.0,35.2,28.0,14.5,0000.0,0001.54,0000.85,0000.51
2021-11-14 19:23:00,,0826.0,5.00,0.00,26.3,25.4,00.0,35.2,28.1,14.4,0000.0,0001.60,0000.87,0000.51
2021-11-14 19:24:00,,0826.0,5.00,0.00,26.3,25.4,00.0,35.2,28.1,14.4,0000.0,0001.69,0000.91,0000.51
2021-11-14 19:25:00,,0826.0,5.01,0.00,26.3,25.4,00.0,35.2,28.1,14.4,0000.0,0001.73,0000.93,0000.51
2021-11-14 19:26:00,,0826.0,4.99,0.00,26.3,25.5,00.0,35.2,28.2,14.4,0000.0,0001.71,0000.92,0000.51
2021-11-14 19:27:00,,0826.0,5.00,0.00,26.4,25.5,00.0,35.3,28.2,14.4,0000.0,0001.70,0000.92,0000.50
2021-11-14 19:28:00,,0826.1,5.01,0.00,26.4,25.5,00.0,35.3,28.2,14.3,0000.0,0001.67,0000.90,0000.50
2021-11-14 19:29:00,,0826.1,5.00,0.00,26.4,25.5,00.0,35.3,28.2,14.3,0000.0,0001.55,0000.83,0000.50
2021-11-14 19:30:00,,0826.1,4.99,0.00,26.4,25.5,00.0,35.3,28.2,14.3,0000.0,0001.44,0000.80,0000.51
2021-11-14 19:31:00,,0826.1,5.00,0.00,26.4,25.5,00.0,35.3,28.2,14.3,0000.0,0001.26,0000.75,0000.50
2021-11-14 19:32:00,,0826.1,5.00,0.00,26.5,25.6,00.0,35.3,28.3,14.3,0000.0,0001.25,0000.72,0000.51
2021-11-14 19:33:00,,0826.2,5.01,0.00,26.5,25.6,00.0,35.4,28.3,14.2,0000.0,0002.46,0000.75,0000.52
2021-11-14 19:34:00,,0826.2,4.99,0.00,26.5,25.6,00.0,35.4,28.3,14.2,0000.0,0003.45,0000.77,0000.52
2021-11-14 19:35:00,,0826.0,5.00,0.00,26.5,25.7,00.0,35.4,28.3,14.2,0000.0,0004.47,0000.75,0000.52
2021-11-14 19:36:00,,0826.0,5.02,0.00,26.5,25.6,00.0,35.4,28.3,14.1,0000.0,0004.43,0000.72,0000.52
2021-11-14 19:37:00,,0825.9,4.99,0.00,26.5,25.6,00.0,35.4,28.3,14.1,0000.0,0004.45,0000.73,0000.52
2021-11-14 19:38:00,,0825.7,5.01,0.00,26.5,25.7,00.0,35.4,28.4,14.1,0000.0,0004.53,0000.77,0000.52
2021-11-14 19:39:00,,0825.8,5.00,0.00,26.6,25.7,00.0,35.4,28.4,14.1,0000.0,0004.70,0000.83,0000.53
2021-11-14 19:40:00,,0825.8,4.99,0.00,26.5,25.7,00.0,35.5,28.4,14.1,0000.0,0004.92,0000.91,0000.54
2021-11-14 19:41:00,,0825.8,5.00,0.00,26.5,25.7,00.0,35.5,28.4,14.1,0000.0,0005.12,0000.96,0000.54
2021-11-14 19:42:00,,0825.7,5.01,0.00,26.5,25.7,00.0,35.5,28.4,14.1,0000.0,0005.26,0000.98,0000.54
2021-11-14 19:43:00,,0825.8,5.01,0.00,26.5,25.7,00.0,35.5,28.3,14.1,0000.0,0005.42,0001.03,0000.55
2021-11-14 19:44:00,,0825.7,5.00,0.00,26.5,25.7,00.0,35.5,28.3,14.1,0000.0,0004.61,0001.06,0000.56
2021-11-14 19:45:00,,0825.7,5.00,0.00,26.5,25.7,00.0,35.5,28.3,14.1,0000.0,0003.81,0001.04,0000.55
2021-11-14 19:46:00,,0825.7,5.00,0.00,26.5,25.7,00.0,35.5,28.3,14.1,0000.0,0004.45,0001.05,0000.55
2021-11-14 19:47:00,,0825.6,4.99,0.00,26.5,25.7,00.0,35.5,28.4,14.1,0000.0,0004.63,0001.13,0000.56
2021-11-14 19:48:00,,0825.5,5.00,0.00,26.5,25.7,00.0,35.5,28.4,14.1,0000.0,0005.40,0001.19,0000.57
2021-11-14 19:49:00,,0825.6,4.99,0.00,26.5,25.7,00.0,35.5,28.4,14.1,0000.0,0005.38,0001.20,0000.58
2021-11-14 19:50:00,,0825.6,5.00,0.00,26.5,25.7,00.0,35.5,28.4,14.1,0000.0,0005.17,0001.14,0000.58
2021-11-14 19:51:00,,0825.6,5.00,0.00,26.5,25.7,00.0,35.5,28.4,14.0,0000.0,0005.00,0001.08,0000.58
2021-11-14 19:52:00,,0825.7,5.00,0.00,26.5,25.7,00.0,35.5,28.4,14.0,0000.0,0004.82,0001.04,0000.58
2021-11-14 19:53:00,,0825.7,4.98,0.00,26.5,25.7,00.0,35.5,28.4,14.0,0000.0,0004.68,0001.02,0000.58
2021-11-14 19:54:00,,0825.7,4.99,0.00,26.6,25.7,00.0,35.5,28.3,14.0,0000.0,0004.47,0000.97,0000.58
2021-11-14 19:55:00,,0825.7,5.01,0.00,26.6,25.7,00.0,35.5,28.3,14.0,0000.0,0004.15,0000.95,0000.58
2021-11-14 19:56:00,,0825.6,4.99,0.00,26.6,25.6,00.0,35.5,28.3,14.0,0000.0,0004.04,0000.98,0000.59
2021-11-14 19:57:00,,0825.7,4.98,0.00,26.6,25.7,00.0,35.5,28.3,14.0,0000.0,0002.48,0001.00,0000.59
2021-11-14 19:58:00,,0825.9,5.00,0.00,26.6,25.6,00.0,35.6,28.3,14.0,0000.0,0002.60,0000.97,0000.59
2021-11-14 19:59:00,,0826.0,5.00,0.00,26.6,25.6,00.0,35.6,28.3,14.0,0000.0,0001.81,0000.89,0000.58
